GW1771 Weather Reports


time (UTC)temp
C
wind
direction
speed
KPH
gust
KPH
rain 1hr
cm
rain 24hr
cm
rain mn
cm
humidity
%
barometer
mb
20260502130434 3 34 0.0 0.0 0.00 0.00 0.00 80 1019.7
20260502123417 -17 0.0 0.0 0.00 0.00 0.00 1019.6
20260502122914 -17 0.0 0.0 0.00 0.00 0.00 1019.4
20260502122410 1 34 0.0 0.0 0.00 0.00 0.00 82 1019.2
20260502121909 1 34 0.0 0.0 0.00 0.00 0.00 82 1019.3
20260502121405 1 34 0.0 0.0 0.00 0.00 0.00 82 1019.4
20260502120903 1 34 0.0 0.0 0.00 0.00 0.00 81 1019.4
20260502120358 1 34 0.0 0.0 0.00 0.00 0.00 81 1019.3
20260502115856 1 34 0.0 0.0 0.00 0.00 0.00 81 1019.3
20260502115353 1 34 0.0 0.0 0.00 0.00 0.00 81 1019.2
20260502114849 0 34 0.0 0.0 0.00 0.00 0.00 83 1019.2
20260502114346 -17 0.0 0.0 0.00 0.00 0.00 1019.1
20260502113843 0 34 0.0 0.0 0.00 0.00 0.00 82 1019.0
20260502113341 0 34 0.0 0.0 0.00 0.00 0.00 82 1019.3
20260502112839 0 34 0.0 0.0 0.00 0.00 0.00 82 1019.3
20260502112336 0 34 0.0 0.0 0.00 0.00 0.00 82 1019.3
20260502111834 0 34 0.0 0.0 0.00 0.00 0.00 83 1019.1
20260502111331 0 34 0.0 0.0 0.00 0.00 0.00 84 1019.2
20260502110828 0 34 0.0 0.0 0.00 0.00 0.00 85 1019.1
20260502110326 0 34 0.0 0.0 0.00 0.00 0.00 85 1019.1
20260502105823 0 34 0.0 0.0 0.00 0.00 0.00 85 1018.8
20260502105320 0 34 0.0 0.0 0.00 0.00 0.00 85 1019.2
20260502104818 0 34 0.0 0.0 0.00 0.00 0.00 85 1019.0
20260502104315 0 34 0.0 0.0 0.00 0.00 0.00 84 1019.1
20260502103812 1 34 0.0 0.0 0.00 0.00 0.00 84 1018.9
20260502103309 1 34 0.0 0.0 0.00 0.00 0.00 84 1019.1
20260502102807 -17 0.0 0.0 0.00 0.00 0.00 1019.2
20260502102306 -17 0.0 0.0 0.00 0.00 0.00 1018.8
20260502101801 -17 0.0 0.0 0.00 0.00 0.00 1019.0
20260502101259 -17 0.0 0.0 0.00 0.00 0.00 1019.1
20260502100757 -17 0.0 0.0 0.00 0.00 0.00 1018.9
20260502100255 -17 0.0 0.0 0.00 0.00 0.00 1018.5
20260502091229 1 34 0.0 0.0 0.00 0.00 0.00 83 1018.6
20260502090727 1 34 0.0 0.0 0.00 0.00 0.00 83 1018.6
20260502090223 1 34 0.0 0.0 0.00 0.00 0.00 82 1018.6
20260502071119 -17 0.0 0.0 0.00 0.00 0.00 1018.5
20260502070617 -17 0.0 0.0 0.00 0.00 0.00 1018.5
20260502070115 -17 0.0 0.0 0.00 0.00 0.00 1018.9
20260502065613 2 34 0.0 0.0 0.00 0.00 0.00 81 1018.6
20260502065110 2 34 0.0 0.0 0.00 0.00 0.00 81 1018.6
20260502064609 2 34 0.0 0.0 0.00 0.00 0.00 81 1018.6
20260502064106 2 34 0.0 0.0 0.00 0.00 0.00 81 1018.5
20260502063603 2 34 0.0 0.0 0.00 0.00 0.00 82 1018.5
20260502063101 2 34 0.0 0.0 0.00 0.00 0.00 80 1018.5
20260502062558 -17 0.0 0.0 0.00 0.00 0.00 1018.5
20260502062055 -17 0.0 0.0 0.00 0.00 0.00 1018.5
20260502061553 -17 0.0 0.0 0.00 0.00 0.00 1018.8
20260502061050 -17 0.0 0.0 0.00 0.00 0.00 1018.4
20260502060545 -17 0.0 0.0 0.00 0.00 0.00 1018.3
20260502060042 -17 0.0 0.0 0.00 0.00 0.00 1018.3
20260502055540 -17 0.0 0.0 0.00 0.00 0.00 1018.3
20260502055038 -17 0.0 0.0 0.00 0.00 0.00 1018.2
20260502054537 -17 0.0 0.0 0.00 0.00 0.00 1018.4
20260502054033 -17 0.0 0.0 0.00 0.00 0.00 1018.3
20260502053530 -17 0.0 0.0 0.00 0.00 0.00 1018.1
20260502053028 -17 0.0 0.0 0.00 0.00 0.00 1018.3
20260502052527 -17 0.0 0.0 0.00 0.00 0.00 1018.2
20260502052024 -17 0.0 0.0 0.00 0.00 0.00 1018.3
20260502051522 -17 0.0 0.0 0.00 0.00 0.00 1018.3
20260502051020 3 34 0.0 0.0 0.00 0.00 0.00 74 1018.2
20260502050515 3 34 0.0 0.0 0.00 0.00 0.00 74 1018.2
20260502050013 3 34 0.0 0.0 0.00 0.00 0.00 75 1018.2
20260502045509 3 34 0.0 0.0 0.00 0.00 0.00 74 1018.1
20260502045007 -17 0.0 0.0 0.00 0.00 0.00 1018.1
20260502044503 4 34 0.0 0.0 0.00 0.00 0.00 71 1018.1
20260502043959 4 34 0.0 0.0 0.00 0.00 0.00 71 1018.0
20260502043457 4 34 0.0 0.0 0.00 0.00 0.00 71 1018.2
20260502042956 5 34 0.0 0.0 0.00 0.00 0.00 71 1018.0
20260502042454 5 34 0.0 0.0 0.00 0.00 0.00 71 1017.9
20260502041951 5 34 0.0 0.0 0.00 0.00 0.00 70 1018.1
20260502041449 5 34 0.0 0.0 0.00 0.00 0.00 70 1018.2
20260502040945 5 34 0.0 0.0 0.00 0.00 0.00 69 1018.1
20260502040442 5 34 0.0 0.0 0.00 0.00 0.00 69 1018.0
20260502035938 5 34 0.0 0.0 0.00 0.00 0.00 69 1018.0
20260502035434 5 34 0.0 0.0 0.00 0.00 0.00 68 1017.8
20260502034933 5 34 0.0 0.0 0.00 0.00 0.00 66 1017.7
20260502034431 5 34 0.0 0.0 0.00 0.00 0.00 65 1017.9
20260502033929 6 34 0.0 0.0 0.00 0.00 0.00 64 1017.9
20260502033426 6 34 0.0 0.0 0.00 0.00 0.00 63 1017.8
20260502032923 6 34 0.0 0.0 0.00 0.00 0.00 62 1018.1
20260502032419 6 34 0.0 0.0 0.00 0.00 0.00 61 1017.9
20260502031916 6 34 0.0 0.0 0.00 0.00 0.00 58 1017.7
20260502031415 7 34 0.0 0.0 0.00 0.00 0.00 57 1017.8
20260502030913 7 34 0.0 0.0 0.00 0.00 0.00 56 1017.8
20260502030411 7 34 0.0 0.0 0.00 0.00 0.00 53 1017.6
20260502025909 7 34 0.0 0.0 0.00 0.00 0.00 52 1017.4
20260502025405 8 34 0.0 0.0 0.00 0.00 0.00 51 1017.7
20260502024903 8 34 0.0 0.0 0.00 0.00 0.00 49 1017.5
20260502024401 -17 0.0 0.0 0.00 0.00 0.00 1017.4
20260502023858 10 33 0.0 0.0 0.00 0.00 0.00 41 1017.5
20260502023355 10 33 0.0 0.0 0.00 0.00 0.00 41 1017.4
20260502022853 10 33 0.0 0.0 0.00 0.00 0.00 41 1017.2
20260502022349 10 39 0.0 1.6 0.00 0.00 0.00 40 1017.2
20260502021846 10 35 1.6 3.2 0.00 0.00 0.00 41 1017.3
20260502021344 10 38 0.0 1.6 0.00 0.00 0.00 39 1017.2
20260502020841 10 337 3.2 3.2 0.00 0.00 0.00 41 1017.1
20260502020339 10 29 0.0 0.0 0.00 0.00 0.00 41 1017.0
20260502015835 10 35 0.0 0.0 0.00 0.00 0.00 40 1017.0
20260502015332 11 33 0.0 0.0 0.00 0.00 0.00 39 1017.0
20260502014830 11 31 0.0 1.6 0.00 0.00 0.00 38 1016.9
20260502014327 11 29 3.2 4.8 0.00 0.00 0.00 38 1016.7
20260502013823 11 56 3.2 4.8 0.00 0.00 0.00 37 1016.5
20260502013318 11 345 1.6 3.2 0.00 0.00 0.00 38 1016.6
20260502012815 11 17 0.0 0.0 0.00 0.00 0.00 37 1016.6
20260502012313 11 350 3.2 3.2 0.00 0.00 0.00 37 1016.7
20260502011810 11 354 1.6 3.2 0.00 0.00 0.00 36 1016.6
20260502011306 11 39 3.2 3.2 0.00 0.00 0.00 36 1016.1
20260502010804 11 301 4.8 4.8 0.00 0.00 0.00 36 1016.4
20260502010259 11 334 1.6 3.2 0.00 0.00 0.00 37 1016.6
20260502005757 11 341 3.2 4.8 0.00 0.00 0.00 35 1016.1
20260502005255 12 323 0.0 1.6 0.00 0.00 0.00 35 1016.3
20260502004751 12 357 3.2 3.2 0.00 0.00 0.00 35 1016.2
20260502004247 12 311 4.8 4.8 0.00 0.00 0.00 34 1016.4
20260502003746 12 16 1.6 1.6 0.00 0.00 0.00 34 1016.1
20260502003243 12 317 3.2 3.2 0.00 0.00 0.00 35 1016.1
20260502002738 12 336 4.8 4.8 0.00 0.00 0.00 35 1016.0
20260502002236 12 36 0.0 1.6 0.00 0.00 0.00 34 1015.9
20260502001733 12 351 3.2 4.8 0.00 0.00 0.00 34 1016.0
20260502001231 12 323 4.8 8.0 0.00 0.00 0.00 34 1015.8
20260502000729 12 48 0.0 0.0 0.00 0.00 0.00 34 1016.0
20260502000227 12 35 1.6 1.6 0.00 0.00 0.00 34 1016.0
20260501235721 12 35 1.6 1.6 0.00 0.00 0.00 34 1016.0
20260501235218 12 257 4.8 9.7 0.00 0.00 0.00 34 1015.8
20260501234714 12 311 3.2 4.8 0.00 0.00 0.00 34 1015.7
20260501234211 12 18 1.6 1.6 0.00 0.00 0.00 34 1015.9
20260501233709 13 345 4.8 8.0 0.00 0.00 0.00 33 1016.2
20260501233206 12 4 0.0 1.6 0.00 0.00 0.00 34 1016.0
20260501232702 13 346 1.6 1.6 0.00 0.00 0.00 34 1016.1
20260501232159 13 356 1.6 1.6 0.00 0.00 0.00 34 1016.1
20260501231657 13 321 1.6 3.2 0.00 0.00 0.00 35 1016.0
20260501231155 13 315 3.2 3.2 0.00 0.00 0.00 33 1015.8
20260501230653 13 335 4.8 4.8 0.00 0.00 0.00 34 1015.7
20260501230151 13 342 3.2 3.2 0.00 0.00 0.00 34 1015.8
20260501225648 13 328 1.6 3.2 0.00 0.00 0.00 33 1016.1
20260501225144 13 284 4.8 8.0 0.00 0.00 0.00 33 1015.9
20260501224641 13 316 0.0 1.6 0.00 0.00 0.00 33 1015.8
20260501224139 13 334 1.6 1.6 0.00 0.00 0.00 33 1016.0
20260501223635 13 323 6.4 14.5 0.00 0.00 0.00 31 1016.0
20260501223132 13 32 4.8 4.8 0.00 0.00 0.00 30 1016.1
20260501222627 13 297 4.8 4.8 0.00 0.00 0.00 33 1015.7
20260501222125 13 13 0.0 1.6 0.00 0.00 0.00 32 1016.0
20260501221621 13 351 0.0 1.6 0.00 0.00 0.00 34 1015.8
20260501221119 13 56 1.6 3.2 0.00 0.00 0.00 33 1015.7
20260501220617 13 347 1.6 1.6 0.00 0.00 0.00 34 1015.7
20260501220113 13 350 0.0 0.0 0.00 0.00 0.00 32 1015.9
20260501215610 13 330 3.2 3.2 0.00 0.00 0.00 33 1015.7
20260501215105 13 289 4.8 8.0 0.00 0.00 0.00 32 1015.7
20260501214600 13 332 0.0 1.6 0.00 0.00 0.00 31 1015.7
20260501214056 13 358 1.6 1.6 0.00 0.00 0.00 31 1015.8
20260501213553 14 324 6.4 8.0 0.00 0.00 0.00 30 1015.8
20260501213049 14 333 1.6 1.6 0.00 0.00 0.00 34 1015.9
20260501212546 14 298 1.6 1.6 0.00 0.00 0.00 33 1015.9
20260501212043 14 50 6.4 9.7 0.00 0.00 0.00 34 1015.9
20260501211539 14 305 1.6 4.8 0.00 0.00 0.00 34 1015.7
20260501211038 13 345 3.2 3.2 0.00 0.00 0.00 36 1015.9
20260501210533 13 318 3.2 8.0 0.00 0.00 0.00 38 1016.1
20260501210031 14 328 4.8 8.0 0.00 0.00 0.00 35 1016.1
20260501205527 14 339 3.2 3.2 0.00 0.00 0.00 35 1016.0
20260501205025 14 294 6.4 11.3 0.00 0.00 0.00 34 1016.1
20260501204521 15 45 1.6 4.8 0.00 0.00 0.00 33 1016.2
20260501204017 14 325 1.6 3.2 0.00 0.00 0.00 38 1016.0
20260501203514 14 294 4.8 4.8 0.00 0.00 0.00 37 1016.0
20260501203012 14 356 1.6 1.6 0.00 0.00 0.00 41 1016.4
20260501202508 15 21 1.6 3.2 0.00 0.00 0.00 35 1016.2
20260501202004 15 58 1.6 1.6 0.00 0.00 0.00 36 1016.1
20260501201502 14 327 4.8 9.7 0.00 0.00 0.00 37 1016.3
20260501200958 14 319 4.8 11.3 0.00 0.00 0.00 38 1016.2
20260501200456 13 296 6.4 9.7 0.00 0.00 0.00 39 1016.4
20260501195953 15 342 11.3 20.9 0.00 0.00 0.00 36 1016.4
20260501195450 15 287 4.8 8.0 0.00 0.00 0.00 39 1016.4
20260501194945 14 313 9.7 16.1 0.00 0.00 0.00 37 1016.2
20260501194441 15 326 6.4 9.7 0.00 0.00 0.00 40 1016.4
20260501193937 15 67 4.8 12.9 0.00 0.00 0.00 38 1016.3
20260501193435 15 249 0.0 1.6 0.00 0.00 0.00 41 1016.3
20260501192933 15 358 6.4 11.3 0.00 0.00 0.00 36 1016.5
20260501192430 15 218 3.2 8.0 0.00 0.00 0.00 38 1016.3
20260501191927 14 106 1.6 3.2 0.00 0.00 0.00 40 1016.4
20260501191424 15 309 3.2 3.2 0.00 0.00 0.00 38 1016.5
20260501190921 15 353 3.2 4.8 0.00 0.00 0.00 39 1016.3
20260501190417 15 40 1.6 1.6 0.00 0.00 0.00 39 1016.4
20260501185917 14 326 1.6 3.2 0.00 0.00 0.00 43 1016.2
20260501185414 14 265 6.4 9.7 0.00 0.00 0.00 40 1016.3
20260501184910 14 333 3.2 4.8 0.00 0.00 0.00 44 1016.5
20260501184406 15 319 4.8 9.7 0.00 0.00 0.00 41 1016.6
20260501183901 15 23 3.2 4.8 0.00 0.00 0.00 41 1016.4
20260501183359 14 34 0.0 1.6 0.00 0.00 0.00 44 1016.1
20260501182855 14 279 4.8 8.0 0.00 0.00 0.00 43 1016.6
20260501182352 13 50 0.0 1.6 0.00 0.00 0.00 45 1016.7
20260501181849 13 40 3.2 4.8 0.00 0.00 0.00 46 1016.3
20260501181346 14 21 3.2 4.8 0.00 0.00 0.00 44 1016.7
20260501180844 14 334 1.6 1.6 0.00 0.00 0.00 50 1016.6
20260501180339 13 324 3.2 3.2 0.00 0.00 0.00 48 1016.7
20260501175837 13 270 4.8 9.7 0.00 0.00 0.00 48 1016.6
20260501175333 13 347 1.6 1.6 0.00 0.00 0.00 48 1016.9
20260501174830 13 44 4.8 4.8 0.00 0.00 0.00 44 1016.5
20260501174327 13 27 1.6 3.2 0.00 0.00 0.00 47 1016.7
20260501173825 13 278 4.8 4.8 0.00 0.00 0.00 46 1016.8
20260501173323 13 330 3.2 9.7 0.00 0.00 0.00 50 1016.8
20260501172818 12 326 3.2 3.2 0.00 0.00 0.00 51 1016.8
20260501172313 12 336 4.8 4.8 0.00 0.00 0.00 50 1016.6
20260501171809 12 329 3.2 4.8 0.00 0.00 0.00 49 1016.7
20260501171306 12 345 3.2 3.2 0.00 0.00 0.00 53 1016.8
20260501170803 12 2 3.2 3.2 0.00 0.00 0.00 54 1016.7
20260501170300 12 295 4.8 8.0 0.00 0.00 0.00 53 1016.8
20260501165757 12 319 8.0 11.3 0.00 0.00 0.00 55 1016.7
20260501165255 11 32 1.6 1.6 0.00 0.00 0.00 54 1016.9
20260501164752 11 330 4.8 4.8 0.00 0.00 0.00 55 1016.9
20260501164249 11 37 4.8 8.0 0.00 0.00 0.00 57 1017.0
20260501163745 11 30 3.2 3.2 0.00 0.00 0.00 57 1016.9
20260501163243 11 331 1.6 3.2 0.00 0.00 0.00 59 1016.7
20260501162738 11 337 1.6 1.6 0.00 0.00 0.00 58 1016.6
20260501162235 11 306 8.0 12.9 0.00 0.00 0.00 60 1016.6
20260501161732 11 31 3.2 4.8 0.00 0.00 0.00 59 1016.7
20260501161229 11 357 8.0 12.9 0.00 0.00 0.00 59 1016.6
20260501160726 11 335 3.2 4.8 0.00 0.00 0.00 60 1016.6
20260501160223 11 21 4.8 8.0 0.00 0.00 0.00 60 1016.7
20260501155720 10 321 4.8 8.0 0.00 0.00 0.00 62 1016.6
20260501155217 10 12 1.6 3.2 0.00 0.00 0.00 63 1016.7
20260501154714 10 3 8.0 12.9 0.00 0.00 0.00 63 1016.5
20260501154211 10 316 4.8 9.7 0.00 0.00 0.00 62 1016.6
20260501153709 10 13 8.0 14.5 0.00 0.00 0.00 61 1016.7
20260501153206 10 20 0.0 0.0 0.00 0.00 0.00 63 1016.8
20260501152702 10 310 11.3 17.7 0.00 0.00 0.00 62 1016.6
20260501152159 9 314 4.8 8.0 0.00 0.00 0.00 63 1016.7
20260501151656 10 333 3.2 9.7 0.00 0.00 0.00 61 1016.7
20260501151152 9 300 4.8 8.0 0.00 0.00 0.00 64 1016.4
20260501150649 9 326 3.2 3.2 0.00 0.00 0.00 63 1016.5
20260501150145 9 8 3.2 3.2 0.00 0.00 0.00 63 1016.4
20260501145641 9 355 3.2 3.2 0.00 0.00 0.00 62 1016.3
20260501145139 9 344 1.6 1.6 0.00 0.00 0.00 62 1016.4
20260501144635 9 1 1.6 3.2 0.00 0.00 0.00 63 1016.2
20260501144130 9 355 1.6 1.6 0.00 0.00 0.00 65 1016.4
20260501143626 8 19 0.0 0.0 0.00 0.00 0.00 65 1016.4
20260501143124 8 350 1.6 1.6 0.00 0.00 0.00 65 1016.4
20260501142621 8 348 4.8 8.0 0.00 0.00 0.00 65 1016.6
20260501142117 8 10 1.6 1.6 0.00 0.00 0.00 64 1016.4
20260501141613 8 319 4.8 4.8 0.00 0.00 0.00 65 1016.5
20260501141111 8 3 1.6 1.6 0.00 0.00 0.00 65 1016.4
20260501140607 8 2 1.6 3.2 0.00 0.00 0.00 65 1016.5
20260501135600 7 321 4.8 4.8 0.00 0.00 0.00 65 1016.5
20260501135058 7 342 1.6 1.6 0.00 0.00 0.00 66 1016.4
20260501134554 7 33 3.2 4.8 0.00 0.00 0.00 65 1016.3
20260501134050 7 19 0.0 0.0 0.00 0.00 0.00 66 1016.3
20260501133548 7 21 0.0 1.6 0.00 0.00 0.00 64 1016.3